CZ-6A DEB, 61084

Orbit data source: Space-Track

CZ-6A DEB, 61084 is space debris in LEO originally from a launch on Tue, 06 Aug 2024 UTC launched from the Taiyaun Space Center, China (TSC). Debris objects in space refer to the collection of defunct objects orbiting the Earth. Examples of debris include non-operational satellites, rocket bodies, and fragments generated from explosions, collisions, or faulty payload assembly.

Loading next visibility...
Identifier
61084, 2024-140NA
Orbit
LEO
Country
Flag of CNCN / PRC
Related business
Manufacturer
SAST
Mission
Spacecraft
Bus & Motor
Unknown
Mass
Unknown
Launch date (UTC)
2024-08-06 (2 years ago)
Launch vehicle
Unknown
Launch site
Taiyaun Space Center, China (TSC)
Object type
Payload
Rocket body
Debris
Shape & HBR
Unknown shape, 0.1 m
Radar Cross Section
Medium (>0.1 m² and <1 m²)

Expand to show TLE details & history
Last TLE update: 14 hours ago

TLE from 14 hours ago
0 CZ-6A DEB
1 61084U 24140NA  26171.28922963  .00002675  00000-0  13433-2 0  9994
2 61084  88.9910 274.6421 0088707 211.6182 147.9659 14.14258879 93588
Epoch: 2026-06-20T06:56Z
TLE epoch observation values (Epoch: 2026-06-20T06:56:29.440Z)
Latitude
-0°
Longitude
-97.98656°
Altitude
902.365 km
Speed
7.373 km/s
True Right ascension
18h 18m 34s
True Declination
0° 00' 00"
Sunlit
Object was in full shadow at epoch
Visualization orbit readout
Latitude
Unknown
Longitude
Unknown
Altitude
Unknown
Speed
Unknown
Apparent Right ascension
Unknown
Apparent Declination
Unknown
Sunlit
N/A
Visualization observer readout
Local Sidereal Time
07:23:56
Azimuth
Unknown
Elevation
Unknown
Doppler factor
Unknown
Orbital elements
Apogee altitude
905.839 km
Perigee altitude
777.748 km
Semi-major axis
7,219.931 km
Eccentricity
0.00887
Inclination
88.991°
RAAN
274.6421°
Arg. of periapsis
211.6182°
True anomaly
148.50005°
Mean anomaly
147.9659°
Eccentric anomaly
148.23347°
Mean motion
3.53788 °/min
Orbital period
101.76 mins
BSTAR
0.0013433
Loading maneuver chart data...
Computing Atmospheric mass density...
Loading historical data...
Loading historical data...
Loading historical data...
Loading historical data...
Loading historical data...
Loading historical data...
Loading historical data...

Documentation

Showing up to 5 results
|